DECAYED

DMSP 5D-2 F13 DEB, 40524 (Decayed)

Orbit data source: Space-Track

DMSP 5D-2 F13 DEB, 40524 was space debris in SSO originally from a launch on Fri, 24 Mar 1995 UTC launched from the Air Force Western Test Range (AFWTR). Debris objects in space refer to the collection of defunct objects orbiting the Earth. Examples of debris include non-operational satellites, rocket bodies, and fragments generated from explosions, collisions, or faulty payload assembly.

Not visible in the next 10 days
Identifier
40524, 1995-015DL
Orbit
Decayed
Country
Flag of USUS
Related business
Manufacturer
Unknown
Mission
Decayed spacecraft
Bus & Motor
Unknown
Mass
Unknown
Launch date (UTC)
1995-03-24 (30 years ago)
Launch vehicle
Unknown
Launch site
Air Force Western Test Range (AFWTR)
Object type
Payload
Rocket body
Debris
Shape & HBR
Unknown
Radar Cross Section
Small (<0.1 m²)

Expand to show TLE details & history
Last TLE update: 1 year ago

TLE from 1 year ago
0 DMSP 5D-2 F13 DEB
1 40524U 95015DL  24151.65369892  .00251845  00000-0  13178-1 0  9992
2 40524  98.5608 241.4193 0027030 285.4038  74.4204 15.14344088484330
Epoch: 2024-05-30T15:41Z
TLE epoch observation values (Epoch: 2024-05-30T15:41:19.586Z)
Latitude
-0.00012°
Longitude
117.44366°
Altitude
521.054 km
Speed
7.606 km/s
True Right ascension
16h 05m 40s
True Declination
0° 00' 00"
Sunlit
Object was in full shadow at epoch
Visualization orbit readout
Latitude
Unknown
Longitude
Unknown
Altitude
Unknown
Speed
Unknown
Apparent Right ascension
Unknown
Apparent Declination
Unknown
Sunlit
N/A
Visualization observer readout
Local Sidereal Time
12:58:47
Azimuth
Unknown
Elevation
Unknown
Doppler factor
Unknown
Orbital elements
Apogee altitude
538.643 km
Perigee altitude
501.351 km
Semi-major axis
6,898.134 km
Eccentricity
0.0027
Inclination
98.5608°
RAAN
241.4193°
Arg. of periapsis
285.4038°
True anomaly
74.71903°
Mean anomaly
74.4204°
Eccentric anomaly
74.56969°
Mean motion
3.78831 °/min
Orbital period
95.03 mins
BSTAR
0.013178
Loading maneuver chart data...
Computing Atmospheric mass density...

Documentation

Showing up to 5 results
|